EJU161A LFBZ-LFLL

Flight info

Callsign EJU161A
Flight time 0h 54m
Altitude 34000
Route SOVOS G17 ORTEZ DCT TBO DCT GONUP DCT TOU DCT GAI/N0458F300 DCT MEN/N0434F260 DCT NINUN G53 MEZIN
Aircraft A320/M-SDE3FGHIRWY/LB1

Departure

Time 2026-05-04 13:39
Airport Biarritz Pays Basque airport (LFBZ)

Arrival

Time 2026-05-04 14:34
Airport Lyon Saint-Exupéry Airport (LFLL)
Time Latitude Longitude Altitude Speed Heading
2026-05-04 13:25 43.47132 -1.52999 245 ft 0 kts 360°
2026-05-04 13:28 43.47111 -1.53000 245 ft 4 kts
2026-05-04 13:29 43.47085 -1.53008 245 ft 4 kts 22°
2026-05-04 13:29 43.47063 -1.53026 245 ft 4 kts 49°
2026-05-04 13:29 43.47053 -1.53050 245 ft 1 kts 89°
2026-05-04 13:31 43.47054 -1.53005 245 ft 11 kts 88°
2026-05-04 13:31 43.47050 -1.52917 245 ft 8 kts 109°
2026-05-04 13:32 43.47019 -1.52875 245 ft 5 kts 142°
2026-05-04 13:32 43.46995 -1.52833 245 ft 9 kts 112°
2026-05-04 13:32 43.46992 -1.52717 245 ft 13 kts 89°
2026-05-04 13:32 43.46993 -1.52609 245 ft 10 kts 89°
2026-05-04 13:33 43.46994 -1.52528 245 ft 7 kts 89°
2026-05-04 13:33 43.46995 -1.52469 245 ft 5 kts 88°
2026-05-04 13:33 43.46996 -1.52414 244 ft 6 kts 90°
2026-05-04 13:33 43.46994 -1.52356 243 ft 5 kts 91°
2026-05-04 13:34 43.46996 -1.52315 243 ft 3 kts 82°
2026-05-04 13:34 43.46999 -1.52270 243 ft 12 kts 87°
2026-05-04 13:34 43.46953 -1.52177 240 ft 12 kts 162°
2026-05-04 13:34 43.46940 -1.52175 239 ft 0 kts 174°
2026-05-04 13:35 43.46928 -1.52173 239 ft 8 kts 176°
2026-05-04 13:35 43.46845 -1.52133 239 ft 14 kts 118°
2026-05-04 13:36 43.46840 -1.52010 239 ft 15 kts 89°
2026-05-04 13:36 43.46842 -1.51827 237 ft 21 kts 89°
2026-05-04 13:36 43.46844 -1.51619 236 ft 23 kts 91°
2026-05-04 13:36 43.46846 -1.51466 236 ft 25 kts 89°
2026-05-04 13:37 43.46850 -1.51212 234 ft 26 kts 89°
2026-05-04 13:37 43.46858 -1.51055 239 ft 11 kts 70°
2026-05-04 13:37 43.46885 -1.50979 238 ft 6 kts 87°
2026-05-04 13:37 43.46862 -1.50960 237 ft 3 kts 194°
2026-05-04 13:38 43.46854 -1.50983 237 ft 2 kts 255°
2026-05-04 13:38 43.46852 -1.51010 236 ft 8 kts 266°
2026-05-04 13:38 43.46849 -1.51245 234 ft 54 kts 269°
2026-05-04 13:38 43.46841 -1.52080 240 ft 117 kts 268°
2026-05-04 13:39 43.46827 -1.53391 475 ft 145 kts 269°
2026-05-04 13:39 43.46810 -1.54766 1182 ft 144 kts 271°
2026-05-04 13:39 43.46791 -1.56195 1599 ft 160 kts 270°
2026-05-04 13:39 43.46772 -1.57839 1888 ft 178 kts 270°
2026-05-04 13:40 43.46748 -1.59549 2483 ft 181 kts 269°
2026-05-04 13:40 43.46361 -1.61276 2771 ft 205 kts 233°
2026-05-04 13:40 43.45071 -1.62314 3170 ft 231 kts 189°
2026-05-04 13:40 43.43478 -1.61904 3926 ft 243 kts 150°
2026-05-04 13:41 43.42373 -1.60151 4733 ft 249 kts 114°
2026-05-04 13:41 43.41853 -1.57871 5571 ft 250 kts 102°
2026-05-04 13:41 43.41530 -1.55520 6425 ft 252 kts 100°
2026-05-04 13:42 43.40814 -1.50754 7998 ft 257 kts 105°
2026-05-04 13:42 43.40355 -1.48360 8766 ft 261 kts 108°
2026-05-04 13:42 43.39844 -1.45947 9520 ft 264 kts 109°
2026-05-04 13:42 43.39421 -1.43470 10279 ft 270 kts 98°
2026-05-04 13:43 43.39346 -1.40779 10621 ft 294 kts 94°
2026-05-04 13:43 43.39312 -1.37856 10873 ft 318 kts 93°
2026-05-04 13:43 43.39280 -1.34704 11093 ft 341 kts 94°
2026-05-04 13:43 43.39248 -1.31328 11285 ft 363 kts 93°
2026-05-04 13:44 43.39214 -1.27806 11803 ft 373 kts 94°
2026-05-04 13:44 43.39178 -1.24226 12501 ft 376 kts 94°
2026-05-04 13:44 43.39137 -1.20611 13226 ft 379 kts 94°
2026-05-04 13:44 43.39090 -1.16975 13891 ft 382 kts 95°
2026-05-04 13:45 43.39041 -1.13309 14533 ft 385 kts 95°
2026-05-04 13:45 43.38989 -1.09612 15148 ft 388 kts 95°
2026-05-04 13:45 43.38937 -1.05887 15757 ft 391 kts 95°
2026-05-04 13:45 43.38883 -1.02129 16349 ft 395 kts 95°
2026-05-04 13:46 43.38827 -0.98398 16911 ft 398 kts 95°
2026-05-04 13:46 43.38767 -0.94535 17473 ft 400 kts 95°
2026-05-04 13:46 43.38697 -0.90748 18006 ft 402 kts 97°
2026-05-04 13:46 43.38349 -0.86953 18522 ft 401 kts 103°
2026-05-04 13:47 43.37903 -0.83149 19042 ft 404 kts 104°
2026-05-04 13:47 43.37452 -0.79321 19539 ft 407 kts 104°
2026-05-04 13:47 43.36998 -0.75462 20009 ft 411 kts 104°
2026-05-04 13:47 43.36571 -0.71565 20476 ft 416 kts 100°
2026-05-04 13:48 43.36407 -0.67574 20913 ft 421 kts 97°
2026-05-04 13:48 43.36269 -0.63548 21346 ft 424 kts 97°
2026-05-04 13:48 43.36125 -0.59487 21775 ft 426 kts 97°
2026-05-04 13:48 43.35979 -0.55402 22196 ft 429 kts 97°
2026-05-04 13:49 43.35827 -0.51235 22620 ft 432 kts 98°
2026-05-04 13:49 43.35673 -0.47157 23015 ft 435 kts 98°
2026-05-04 13:49 43.35513 -0.42948 23400 ft 438 kts 98°
2026-05-04 13:49 43.35352 -0.38762 23769 ft 440 kts 98°
2026-05-04 13:50 43.35196 -0.34599 24128 ft 443 kts 98°
2026-05-04 13:50 43.35040 -0.30360 24478 ft 446 kts 98°
2026-05-04 13:50 43.34879 -0.26093 24824 ft 448 kts 98°
2026-05-04 13:50 43.34715 -0.21807 25151 ft 451 kts 98°
2026-05-04 13:51 43.34545 -0.17493 25468 ft 454 kts 98°
2026-05-04 13:51 43.34371 -0.13144 25790 ft 457 kts 98°
2026-05-04 13:51 43.34194 -0.08777 26097 ft 459 kts 98°
2026-05-04 13:51 43.34012 -0.04387 26392 ft 462 kts 99°
2026-05-04 13:52 43.33645 0.04467 26942 ft 467 kts 98°
2026-05-04 13:52 43.33455 0.08940 27102 ft 473 kts 97°
2026-05-04 13:52 43.33482 0.13495 27295 ft 482 kts 89°
2026-05-04 13:53 43.33998 0.18077 27538 ft 489 kts 80°
2026-05-04 13:53 43.34922 0.22597 27771 ft 493 kts 77°
2026-05-04 13:53 43.35891 0.27128 28023 ft 496 kts 77°
2026-05-04 13:54 43.37821 0.36267 28520 ft 500 kts 77°
2026-05-04 13:54 43.38787 0.40863 28850 ft 500 kts 77°
2026-05-04 13:54 43.40709 0.50058 29492 ft 501 kts 77°
2026-05-04 13:55 43.41668 0.54666 29805 ft 502 kts 77°
2026-05-04 13:55 43.43588 0.63882 30455 ft 501 kts 78°
2026-05-04 13:55 43.44544 0.68481 30764 ft 501 kts 78°
2026-05-04 13:56 43.45557 0.73087 31075 ft 504 kts 73°
2026-05-04 13:56 43.46965 0.77521 31359 ft 507 kts 64°
2026-05-04 13:56 43.50730 0.85760 31950 ft 509 kts 58°
2026-05-04 13:57 43.52661 0.89856 32256 ft 509 kts 59°
2026-05-04 13:57 43.54584 0.93956 32549 ft 509 kts 59°
2026-05-04 13:58 43.60340 1.06280 33398 ft 510 kts 59°
2026-05-04 13:58 43.64173 1.14511 33893 ft 510 kts 59°
2026-05-04 13:58 43.66096 1.18647 33927 ft 512 kts 59°
2026-05-04 13:59 43.69957 1.26945 33946 ft 514 kts 59°
2026-05-04 13:59 43.73810 1.35269 34505 ft 514 kts 59°
2026-05-04 14:00 43.75733 1.39437 34783 ft 513 kts 59°
2026-05-04 14:00 43.79558 1.47747 35340 ft 511 kts 59°
2026-05-04 14:00 43.81470 1.51906 35591 ft 511 kts 59°
2026-05-04 14:01 43.83375 1.56048 35829 ft 510 kts 59°
2026-05-04 14:01 43.85269 1.60171 35918 ft 510 kts 59°
2026-05-04 14:02 43.90924 1.72550 35934 ft 509 kts 59°
2026-05-04 14:02 43.94701 1.80855 35936 ft 508 kts 59°
2026-05-04 14:03 43.98569 1.89068 35934 ft 508 kts 56°
2026-05-04 14:03 44.02648 1.97096 35943 ft 509 kts 55°
2026-05-04 14:04 44.08769 2.09153 35941 ft 509 kts 56°
2026-05-04 14:04 44.12768 2.17264 35941 ft 508 kts 57°
2026-05-04 14:05 44.18752 2.29462 35940 ft 508 kts 57°
2026-05-04 14:06 44.22740 2.37579 35940 ft 508 kts 57°
2026-05-04 14:06 44.26736 2.45710 35945 ft 507 kts 57°
2026-05-04 14:07 44.30712 2.53841 35951 ft 507 kts 57°
2026-05-04 14:07 44.34676 2.61987 35954 ft 507 kts 57°
2026-05-04 14:08 44.38633 2.70120 35955 ft 506 kts 57°
2026-05-04 14:08 44.42557 2.78200 35954 ft 505 kts 57°
2026-05-04 14:09 44.48454 2.90410 35957 ft 504 kts 57°
2026-05-04 14:10 44.54323 3.02630 35955 ft 503 kts 57°
2026-05-04 14:10 44.58226 3.10773 35955 ft 503 kts 57°
2026-05-04 14:11 44.62080 3.18977 35955 ft 503 kts 60°
2026-05-04 14:11 44.67223 3.31785 35958 ft 502 kts 64°
2026-05-04 14:12 44.70530 3.40424 35963 ft 502 kts 63°
2026-05-04 14:13 44.75628 3.53275 35977 ft 501 kts 62°
2026-05-04 14:13 44.79060 3.61810 35986 ft 501 kts 62°
2026-05-04 14:14 44.82463 3.70377 35989 ft 501 kts 63°
2026-05-04 14:14 44.87527 3.83245 35989 ft 500 kts 63°
2026-05-04 14:15 44.94288 4.00519 34246 ft 513 kts 63°
2026-05-04 14:16 44.97697 4.09247 32795 ft 509 kts 63°
2026-05-04 14:16 44.99404 4.13627 31975 ft 509 kts 63°
2026-05-04 14:17 45.02461 4.22515 29423 ft 499 kts 73°
2026-05-04 14:17 45.03593 4.27142 27765 ft 498 kts 74°
2026-05-04 14:17 45.05817 4.36242 25536 ft 473 kts 73°
2026-05-04 14:18 45.06873 4.40543 24824 ft 455 kts 74°
2026-05-04 14:18 45.08904 4.48926 23343 ft 447 kts 74°
2026-05-04 14:19 45.10903 4.57211 21947 ft 443 kts 73°
2026-05-04 14:19 45.11898 4.61320 21283 ft 440 kts 74°
2026-05-04 14:19 45.12890 4.65410 20619 ft 438 kts 73°
2026-05-04 14:19 45.13877 4.69484 19970 ft 436 kts 73°
2026-05-04 14:20 45.14855 4.73526 19338 ft 432 kts 73°
2026-05-04 14:20 45.16062 4.77415 18738 ft 432 kts 62°
2026-05-04 14:20 45.17766 4.80897 18145 ft 430 kts 50°
2026-05-04 14:21 45.22394 4.86094 16962 ft 424 kts 26°
2026-05-04 14:21 45.25113 4.87638 16422 ft 419 kts 16°
2026-05-04 14:21 45.27890 4.88818 15872 ft 415 kts 16°
2026-05-04 14:21 45.30660 4.89934 15359 ft 411 kts 14°
2026-05-04 14:22 45.33416 4.90936 14817 ft 408 kts 13°
2026-05-04 14:22 45.36160 4.91869 14296 ft 404 kts 12°
2026-05-04 14:22 45.38889 4.92773 13748 ft 401 kts 12°
2026-05-04 14:22 45.41598 4.93671 13202 ft 398 kts 12°
2026-05-04 14:23 45.46958 4.95493 12017 ft 394 kts 13°
2026-05-04 14:23 45.48717 4.96108 11604 ft 392 kts 13°
2026-05-04 14:23 45.52224 4.97347 11021 ft 382 kts 14°
2026-05-04 14:24 45.53925 4.97862 10930 ft 371 kts
2026-05-04 14:24 45.57243 4.98012 10765 ft 351 kts 354°
2026-05-04 14:24 45.59627 4.97663 10639 ft 339 kts 353°
2026-05-04 14:24 45.61194 4.97439 10550 ft 331 kts 353°
2026-05-04 14:25 45.64159 4.97023 10376 ft 317 kts 353°
2026-05-04 14:25 45.67782 4.96518 10128 ft 310 kts 354°
2026-05-04 14:25 45.69931 4.96217 10016 ft 310 kts 353°
2026-05-04 14:26 45.72093 4.95911 9543 ft 313 kts 354°
2026-05-04 14:26 45.74253 4.95600 9219 ft 310 kts 354°
2026-05-04 14:26 45.76384 4.95292 8609 ft 307 kts 354°
2026-05-04 14:26 45.78480 4.94993 8228 ft 294 kts 354°
2026-05-04 14:27 45.80449 4.94709 8083 ft 275 kts 354°
2026-05-04 14:27 45.82317 4.94436 7712 ft 266 kts 354°
2026-05-04 14:27 45.84148 4.94168 7243 ft 262 kts 354°
2026-05-04 14:27 45.85957 4.94149 6781 ft 259 kts
2026-05-04 14:28 45.87697 4.94694 6334 ft 255 kts 21°
2026-05-04 14:28 45.89353 4.95553 5906 ft 252 kts 22°
2026-05-04 14:28 45.90883 4.96724 5832 ft 249 kts 42°
2026-05-04 14:28 45.91974 4.98546 5707 ft 241 kts 63°
2026-05-04 14:29 45.92390 5.03173 4870 ft 240 kts 109°
2026-05-04 14:29 45.90281 5.06742 4029 ft 233 kts 155°
2026-05-04 14:30 45.88768 5.07326 3763 ft 221 kts 175°
2026-05-04 14:30 45.87246 5.07510 3475 ft 213 kts 174°
2026-05-04 14:30 45.84459 5.07851 2943 ft 186 kts 175°
2026-05-04 14:31 45.83221 5.08000 2724 ft 171 kts 174°
2026-05-04 14:31 45.80960 5.08276 2267 ft 153 kts 174°
2026-05-04 14:32 45.78943 5.08520 1867 ft 142 kts 173°
2026-05-04 14:32 45.77963 5.08641 1686 ft 140 kts 174°
2026-05-04 14:32 45.76996 5.08764 1502 ft 139 kts 173°
2026-05-04 14:32 45.76034 5.08894 1316 ft 139 kts 173°
2026-05-04 14:33 45.75070 5.09006 1133 ft 139 kts 174°
2026-05-04 14:33 45.74111 5.09116 954 ft 138 kts 174°
2026-05-04 14:33 45.73154 5.09238 802 ft 134 kts 175°
2026-05-04 14:33 45.72339 5.09329 812 ft 96 kts 176°
2026-05-04 14:34 45.71848 5.09388 820 ft 46 kts 174°
2026-05-04 14:34 45.71588 5.09417 822 ft 35 kts 176°
2026-05-04 14:34 45.71350 5.09447 829 ft 33 kts 175°
2026-05-04 14:34 45.71184 5.09469 829 ft 13 kts 175°
2026-05-04 14:35 45.71112 5.09405 829 ft 13 kts 255°
2026-05-04 14:35 45.71101 5.09274 826 ft 14 kts 264°
2026-05-04 14:35 45.71089 5.09114 819 ft 18 kts 262°
2026-05-04 14:35 45.71077 5.08931 818 ft 20 kts 267°
2026-05-04 14:36 45.71098 5.08731 819 ft 14 kts 285°
2026-05-04 14:36 45.71114 5.08656 817 ft 8 kts 291°
2026-05-04 14:36 45.71140 5.08586 812 ft 9 kts 317°
2026-05-04 14:36 45.71198 5.08549 813 ft 10 kts 354°
2026-05-04 14:37 45.71271 5.08546 813 ft 13 kts 356°
2026-05-04 14:37 45.71387 5.08530 811 ft 20 kts 355°
2026-05-04 14:37 45.71547 5.08513 803 ft 26 kts 355°
2026-05-04 14:37 45.71670 5.08482 802 ft 14 kts 321°
2026-05-04 14:38 45.71679 5.08342 800 ft 15 kts 264°
2026-05-04 14:38 45.71682 5.08207 801 ft 13 kts 282°
2026-05-04 14:38 45.71734 5.08118 798 ft 13 kts 353°
2026-05-04 14:38 45.71806 5.08167 797 ft 10 kts 25°
2026-05-04 14:39 45.71836 5.08137 797 ft 6 kts 305°
2026-05-04 14:39 45.71860 5.08094 796 ft 5 kts 309°
2026-05-04 14:39 45.71866 5.08084 796 ft 0 kts 309°